Weather History for Cape Girardeau, MO

Change the Weather History Date:

Tuesday, January 1, 2013

  Actual Average Record
Temperature  
Mean Temperature 29 °F 33 °F  
Max Temperature 34 °F 42 °F 65 °F (1985)
Min Temperature 24 °F 24 °F -2 °F (2001)
Degree Days  
Heating Degree Days 36 32  
Month to date heating degree days 36 32  
Since 1 July heating degree days 1660 1783  
Cooling Degree Days 0 0  
Month to date cooling degree days 0 0  
Year to date cooling degree days 0 0  
Moisture  
Dew Point 26 °F    
Average Humidity 87    
Maximum Humidity 100    
Minimum Humidity 74    
Precipitation  
Precipitation 0.00 in 0.12 in 1.77 in (1966)
Month to date precipitation 0.00 0.12  
Year to date precipitation 0.00 0.12  
Sea Level Pressure  
Sea Level Pressure 30.16 in    
Wind  
Wind Speed 9 mph (North)    
Max Wind Speed 18 mph    
Max Gust Speed 22 mph    
Visibility 6 miles    
Events      
T = Trace of Precipitation, MM = Missing Value Source: NWS Daily Summary

Daily Weather History Graph

Daily Weather History Graph

Search for Another Location

Airport:

Trip Planner

Search our weather history database for the weather conditions in past years. The results will help you decide how hot, cold, wet, or windy it might be!

Date:

Astronomy

Jan. 01, 2013 Rise Set
Actual Time 7:12 AM CST 4:51 PM CST
Civil Twilight 6:43 AM CST 5:20 PM CST
Nautical Twilight 6:10 AM CST 5:53 PM CST
Astronomical Twilight 5:39 AM CST 6:25 PM CST
Moon 9:16 PM CST 9:30 AM CST
Length of Visible Light 10h 37m
Length of Day
9h 39m
Waning Gibbous, 83% of the Moon is Illuminated
Jan 1
Waning Gibbous
Jan 4
Last Quarter
Jan 11
New
Jan 18
First Quarter
Jan 26
Full

Hourly Weather History & Observations

Time (CST) Temp. Windchill Dew Point Humidity Pressure Visibility Wind Dir Wind Speed Gust Speed Precip Events Conditions
12:08 AM 33.8 °F 30.8 °F 33.8 °F 100% 30.07 in 1.5 mi NE 3.5 mph - N/A   Overcast
12:53 AM 34.0 °F 31.0 °F 34.0 °F 100% 30.08 in 1.5 mi NNE 3.5 mph - N/A   Overcast
1:53 AM 34.0 °F 31.0 °F 34.0 °F 100% 30.09 in 1.2 mi North 3.5 mph - N/A   Overcast
2:39 AM 33.8 °F 28.6 °F 33.8 °F 100% 30.08 in 2.0 mi North 5.8 mph - N/A   Overcast
2:53 AM 34.0 °F - 34.0 °F 100% 30.11 in 1.8 mi Calm Calm - N/A   Overcast
3:14 AM 33.8 °F - 33.8 °F 100% 30.10 in 3.0 mi Calm Calm - N/A   Overcast
3:53 AM 34.0 °F 28.8 °F 33.1 °F 96% 30.09 in 5.0 mi North 5.8 mph - N/A   Overcast
4:16 AM 33.8 °F 27.0 °F 33.8 °F 100% 30.09 in 5.0 mi NNE 8.1 mph - N/A   Overcast
4:53 AM 34.0 °F 26.0 °F 32.0 °F 92% 30.12 in 9.0 mi NNE 10.4 mph - N/A   Overcast
5:53 AM 34.0 °F 25.5 °F 32.0 °F 92% 30.11 in 7.0 mi NNE 11.5 mph - N/A   Overcast
6:53 AM 34.0 °F 26.6 °F 32.0 °F 92% 30.12 in 9.0 mi NNE 9.2 mph - N/A   Overcast
8:53 AM 33.1 °F 24.9 °F 30.0 °F 89% 30.18 in 7.0 mi North 10.4 mph - N/A   Overcast
9:18 AM 33.8 °F 25.3 °F 30.2 °F 87% 30.16 in 7.0 mi North 11.5 mph - N/A   Overcast
9:53 AM 33.1 °F 24.9 °F 28.9 °F 85% 30.15 in 4.0 mi North 10.4 mph - N/A   Overcast
10:40 AM 30.2 °F 19.8 °F 28.4 °F 93% 30.18 in 4.0 mi NNW 13.8 mph - N/A   Overcast
10:53 AM 30.9 °F 22.8 °F 28.0 °F 89% 30.20 in 4.0 mi NNW 9.2 mph - N/A   Overcast
11:41 AM 30.2 °F 19.3 °F 26.6 °F 86% 30.21 in 4.0 mi North 15.0 mph - N/A   Overcast
11:53 AM 30.0 °F 20.5 °F 26.1 °F 85% 30.21 in 4.0 mi North 11.5 mph - N/A   Overcast
12:29 PM 28.4 °F 17.5 °F 24.8 °F 86% 30.17 in 5.0 mi North 13.8 mph - N/A   Haze
12:53 PM 28.0 °F 17.0 °F 23.0 °F 81% 30.17 in 6.0 mi North 13.8 mph - N/A   Haze
1:00 PM 28.4 °F 17.5 °F 23.0 °F 80% 30.15 in 6.0 mi North 13.8 mph - N/A   Haze
1:25 PM 28.4 °F 19.7 °F 23.0 °F 80% 30.16 in 5.0 mi North 9.2 mph - N/A   Haze
1:33 PM 28.4 °F 18.5 °F 23.0 °F 80% 30.15 in 5.0 mi North 11.5 mph - N/A   Haze
1:53 PM 28.0 °F 20.0 °F 23.0 °F 81% 30.17 in 6.0 mi North 8.1 mph - N/A   Haze
2:53 PM 28.0 °F 15.7 °F 21.0 °F 75% 30.17 in 6.0 mi North 17.3 mph - N/A   Haze
3:53 PM 28.0 °F 16.5 °F 21.0 °F 75% 30.18 in 5.0 mi North 15.0 mph - N/A   Haze
4:53 PM 27.0 °F 16.7 °F 21.0 °F 78% 30.20 in 7.0 mi North 11.5 mph - N/A   Overcast
5:53 PM 27.0 °F 15.6 °F 19.9 °F 75% 30.23 in 8.0 mi North 13.8 mph - N/A   Overcast
6:53 PM 27.0 °F 16.7 °F 19.9 °F 75% 30.23 in 8.0 mi North 11.5 mph - N/A   Mostly Cloudy
7:53 PM 26.1 °F 17.6 °F 19.0 °F 75% 30.25 in 8.0 mi North 8.1 mph - N/A   Clear
8:53 PM 25.0 °F 15.5 °F 19.0 °F 78% 30.24 in 8.0 mi North 9.2 mph - N/A   Clear
9:53 PM 25.0 °F 16.3 °F 18.0 °F 75% 30.26 in 9.0 mi North 8.1 mph - N/A   Clear
10:53 PM 25.0 °F 16.3 °F 18.0 °F 75% 30.27 in 9.0 mi North 8.1 mph - N/A   Clear
11:53 PM 24.1 °F 16.0 °F 15.1 °F 69% 30.25 in 10.0 mi North 6.9 mph - N/A   Clear